owner,sensor,date,latitude,longitude,vertical_datum,mass_concentration_of_oxygen_in_sea_water,qcFlag 
DISL,ioos:station:DISL:MHPA:1,2014-05-01T00:00:00Z,30.6671,-87.9365,1.39,7.86,1111122 
DISL,ioos:station:DISL:MHPA:1,2014-05-01T00:30:00Z,30.6671,-87.9365,1.367,7.79,1111122 
DISL,ioos:station:DISL:MHPA:1,2014-05-01T01:00:00Z,30.6671,-87.9365,1.322,7.76,1111122 
DISL,ioos:station:DISL:MHPA:1,2014-05-01T01:30:00Z,30.6671,-87.9365,1.287,7.74,1111122 
DISL,ioos:station:DISL:MHPA:1,2014-05-01T02:00:00Z,30.6671,-87.9365,1.257,7.78,1111122 
DISL,ioos:station:DISL:MHPA:1,2014-05-01T02:30:00Z,30.6671,-87.9365,1.229,7.7,1111122 
DISL,ioos:station:DISL:MHPA:1,2014-05-01T03:00:00Z,30.6671,-87.9365,1.224,7.62,1111122 
DISL,ioos:station:DISL:MHPA:1,2014-05-01T03:30:00Z,30.6671,-87.9365,1.197,7.62,1111122 
DISL,ioos:station:DISL:MHPA:1,2014-05-01T04:00:00Z,30.6671,-87.9365,1.152,7.57,1111122 
DISL,ioos:station:DISL:MHPA:1,2014-05-01T04:30:00Z,30.6671,-87.9365,1.115,7.62,1111122 
DISL,ioos:station:DISL:MHPA:1,2014-05-01T05:00:00Z,30.6671,-87.9365,1.096,7.61,1111122 
DISL,ioos:station:DISL:MHPA:1,2014-05-01T05:30:00Z,30.6671,-87.9365,1.083,7.57,1111122 
DISL,ioos:station:DISL:MHPA:1,2014-05-01T06:00:00Z,30.6671,-87.9365,1.083,7.41,1111122 
DISL,ioos:station:DISL:MHPA:1,2014-05-01T06:30:00Z,30.6671,-87.9365,1.08,7.3,1111122 
DISL,ioos:station:DISL:MHPA:1,2014-05-01T07:00:00Z,30.6671,-87.9365,1.07,7.34,1111122 
DISL,ioos:station:DISL:MHPA:1,2014-05-01T07:30:00Z,30.6671,-87.9365,1.061,7.3,1111122 
DISL,ioos:station:DISL:MHPA:1,2014-05-01T08:00:00Z,30.6671,-87.9365,1.052,7.23,1111122 
DISL,ioos:station:DISL:MHPA:1,2014-05-01T08:30:00Z,30.6671,-87.9365,1.032,7.2,1111122 
DISL,ioos:station:DISL:MHPA:1,2014-05-01T09:00:00Z,30.6671,-87.9365,1.013,7.15,1111122 
DISL,ioos:station:DISL:MHPA:1,2014-05-01T09:30:00Z,30.6671,-87.9365,0.991,7.06,1111122 
DISL,ioos:station:DISL:MHPA:1,2014-05-01T10:00:00Z,30.6671,-87.9365,0.975,7.08,1111122 
DISL,ioos:station:DISL:MHPA:1,2014-05-01T10:30:00Z,30.6671,-87.9365,0.977,7.13,1111122 
DISL,ioos:station:DISL:MHPA:1,2014-05-01T11:00:00Z,30.6671,-87.9365,0.981,7.16,1111122 
DISL,ioos:station:DISL:MHPA:1,2014-05-01T11:30:00Z,30.6671,-87.9365,0.979,7.1,1111122 
DISL,ioos:station:DISL:MHPA:1,2014-05-01T12:00:00Z,30.6671,-87.9365,0.983,7.12,1111122 
DISL,ioos:station:DISL:MHPA:1,2014-05-01T12:30:00Z,30.6671,-87.9365,0.99,7.1,1111122 
DISL,ioos:station:DISL:MHPA:1,2014-05-01T13:00:00Z,30.6671,-87.9365,0.999,7.11,1111122 
DISL,ioos:station:DISL:MHPA:1,2014-05-01T13:30:00Z,30.6671,-87.9365,1.002,7.19,1111122 
DISL,ioos:station:DISL:MHPA:1,2014-05-01T14:00:00Z,30.6671,-87.9365,1.023,7.35,1111122 
DISL,ioos:station:DISL:MHPA:1,2014-05-01T14:30:00Z,30.6671,-87.9365,1.073,7.35,1111122 
DISL,ioos:station:DISL:MHPA:1,2014-05-01T15:00:00Z,30.6671,-87.9365,1.122,7.36,1111122 
DISL,ioos:station:DISL:MHPA:1,2014-05-01T15:30:00Z,30.6671,-87.9365,1.161,7.37,1111122 
DISL,ioos:station:DISL:MHPA:1,2014-05-01T16:00:00Z,30.6671,-87.9365,1.206,7.39,1111122 
DISL,ioos:station:DISL:MHPA:1,2014-05-01T16:30:00Z,30.6671,-87.9365,1.289,7.45,1111122 
DISL,ioos:station:DISL:MHPA:1,2014-05-01T17:00:00Z,30.6671,-87.9365,1.362,7.43,1111122 
DISL,ioos:station:DISL:MHPA:1,2014-05-01T17:30:00Z,30.6671,-87.9365,1.418,7.51,1111122 
DISL,ioos:station:DISL:MHPA:1,2014-05-01T18:00:00Z,30.6671,-87.9365,1.445,7.49,1111122 
DISL,ioos:station:DISL:MHPA:1,2014-05-01T18:30:00Z,30.6671,-87.9365,1.465,7.41,1111122 
DISL,ioos:station:DISL:MHPA:1,2014-05-01T19:00:00Z,30.6671,-87.9365,1.48,7.36,1111122 
DISL,ioos:station:DISL:MHPA:1,2014-05-01T19:30:00Z,30.6671,-87.9365,1.488,7.41,1111122 
DISL,ioos:station:DISL:MHPA:1,2014-05-01T20:00:00Z,30.6671,-87.9365,1.474,7.54,1111122 
DISL,ioos:station:DISL:MHPA:1,2014-05-01T20:30:00Z,30.6671,-87.9365,1.448,7.69,1111122 
DISL,ioos:station:DISL:MHPA:1,2014-05-01T21:00:00Z,30.6671,-87.9365,1.424,7.62,1111122 
DISL,ioos:station:DISL:MHPA:1,2014-05-01T21:30:00Z,30.6671,-87.9365,1.411,7.63,1111122 
DISL,ioos:station:DISL:MHPA:1,2014-05-01T22:00:00Z,30.6671,-87.9365,1.388,7.69,1111122 
DISL,ioos:station:DISL:MHPA:1,2014-05-01T22:30:00Z,30.6671,-87.9365,1.362,7.76,1111122 
DISL,ioos:station:DISL:MHPA:1,2014-05-01T23:00:00Z,30.6671,-87.9365,1.329,7.72,1111122 
DISL,ioos:station:DISL:MHPA:1,2014-05-01T23:30:00Z,30.6671,-87.9365,1.293,7.55,1111122 
DISL,ioos:station:DISL:MHPA:1,2014-05-02T00:00:00Z,30.6671,-87.9365,1.258,7.52,1111122 
DISL,ioos:station:DISL:MHPA:1,2014-05-02T00:30:00Z,30.6671,-87.9365,1.228,7.55,1111122 
DISL,ioos:station:DISL:MHPA:1,2014-05-02T01:00:00Z,30.6671,-87.9365,1.2,7.47,1111122 
DISL,ioos:station:DISL:MHPA:1,2014-05-02T01:30:00Z,30.6671,-87.9365,1.175,7.43,1111122 
DISL,ioos:station:DISL:MHPA:1,2014-05-02T02:00:00Z,30.6671,-87.9365,1.143,7.4,1111122 
DISL,ioos:station:DISL:MHPA:1,2014-05-02T02:30:00Z,30.6671,-87.9365,1.119,7.38,1111122 
DISL,ioos:station:DISL:MHPA:1,2014-05-02T03:00:00Z,30.6671,-87.9365,1.097,7.29,1111122 
DISL,ioos:station:DISL:MHPA:1,2014-05-02T03:30:00Z,30.6671,-87.9365,1.079,7.45,1111122 
DISL,ioos:station:DISL:MHPA:1,2014-05-02T04:00:00Z,30.6671,-87.9365,1.064,7.45,1111122 
DISL,ioos:station:DISL:MHPA:1,2014-05-02T04:30:00Z,30.6671,-87.9365,1.044,7.39,1111122 
DISL,ioos:station:DISL:MHPA:1,2014-05-02T05:00:00Z,30.6671,-87.9365,1.03,7.39,1111122 
DISL,ioos:station:DISL:MHPA:1,2014-05-02T05:30:00Z,30.6671,-87.9365,1.021,7.28,1111122 
DISL,ioos:station:DISL:MHPA:1,2014-05-02T06:00:00Z,30.6671,-87.9365,1.014,7.25,1111122 
DISL,ioos:station:DISL:MHPA:1,2014-05-02T06:30:00Z,30.6671,-87.9365,1.012,7.21,1111122 
DISL,ioos:station:DISL:MHPA:1,2014-05-02T07:00:00Z,30.6671,-87.9365,1.006,7.22,1111122 
DISL,ioos:station:DISL:MHPA:1,2014-05-02T07:30:00Z,30.6671,-87.9365,0.999,7.18,1111122 
DISL,ioos:station:DISL:MHPA:1,2014-05-02T08:00:00Z,30.6671,-87.9365,1.008,7.11,1111122 
DISL,ioos:station:DISL:MHPA:1,2014-05-02T08:30:00Z,30.6671,-87.9365,1.01,7.0,1111122 
DISL,ioos:station:DISL:MHPA:1,2014-05-02T09:00:00Z,30.6671,-87.9365,1.0,6.95,1111122 
DISL,ioos:station:DISL:MHPA:1,2014-05-02T09:30:00Z,30.6671,-87.9365,1.021,6.92,1111122 
DISL,ioos:station:DISL:MHPA:1,2014-05-02T10:00:00Z,30.6671,-87.9365,1.083,6.91,1111122 
DISL,ioos:station:DISL:MHPA:1,2014-05-02T10:30:00Z,30.6671,-87.9365,1.119,6.79,1111122 
DISL,ioos:station:DISL:MHPA:1,2014-05-02T11:00:00Z,30.6671,-87.9365,1.131,6.88,1111122 
DISL,ioos:station:DISL:MHPA:1,2014-05-02T11:30:00Z,30.6671,-87.9365,1.146,6.82,1111122 
DISL,ioos:station:DISL:MHPA:1,2014-05-02T12:00:00Z,30.6671,-87.9365,1.185,6.85,1111122 
DISL,ioos:station:DISL:MHPA:1,2014-05-02T12:30:00Z,30.6671,-87.9365,1.202,6.94,1111122 
DISL,ioos:station:DISL:MHPA:1,2014-05-02T13:00:00Z,30.6671,-87.9365,1.228,6.94,1111122 
DISL,ioos:station:DISL:MHPA:1,2014-05-02T13:30:00Z,30.6671,-87.9365,1.258,6.86,1111122 
DISL,ioos:station:DISL:MHPA:1,2014-05-02T14:00:00Z,30.6671,-87.9365,1.298,6.81,1111122 
DISL,ioos:station:DISL:MHPA:1,2014-05-02T14:30:00Z,30.6671,-87.9365,1.346,6.5,1111122 
DISL,ioos:station:DISL:MHPA:1,2014-05-02T15:00:00Z,30.6671,-87.9365,1.376,6.38,1111122 
DISL,ioos:station:DISL:MHPA:1,2014-05-02T15:30:00Z,30.6671,-87.9365,1.417,6.78,1111122 
DISL,ioos:station:DISL:MHPA:1,2014-05-02T16:00:00Z,30.6671,-87.9365,1.45,6.84,1111122 
DISL,ioos:station:DISL:MHPA:1,2014-05-02T16:30:00Z,30.6671,-87.9365,1.461,6.99,1111122 
DISL,ioos:station:DISL:MHPA:1,2014-05-02T17:00:00Z,30.6671,-87.9365,1.491,6.91,1111122 
DISL,ioos:station:DISL:MHPA:1,2014-05-02T17:30:00Z,30.6671,-87.9365,1.521,6.95,1111122 
DISL,ioos:station:DISL:MHPA:1,2014-05-02T18:00:00Z,30.6671,-87.9365,1.537,6.97,1111122 
DISL,ioos:station:DISL:MHPA:1,2014-05-02T18:30:00Z,30.6671,-87.9365,1.527,7.06,1111122 
DISL,ioos:station:DISL:MHPA:1,2014-05-02T19:00:00Z,30.6671,-87.9365,1.514,7.34,1111122 
DISL,ioos:station:DISL:MHPA:1,2014-05-02T19:30:00Z,30.6671,-87.9365,1.515,7.36,1111122 
DISL,ioos:station:DISL:MHPA:1,2014-05-02T20:00:00Z,30.6671,-87.9365,1.48,7.56,1111122 
DISL,ioos:station:DISL:MHPA:1,2014-05-02T20:30:00Z,30.6671,-87.9365,1.456,7.54,1111122 
DISL,ioos:station:DISL:MHPA:1,2014-05-02T21:00:00Z,30.6671,-87.9365,1.437,7.35,1111122 
DISL,ioos:station:DISL:MHPA:1,2014-05-02T21:30:00Z,30.6671,-87.9365,1.414,7.14,1111122 
DISL,ioos:station:DISL:MHPA:1,2014-05-02T22:00:00Z,30.6671,-87.9365,1.385,7.12,1111122 
DISL,ioos:station:DISL:MHPA:1,2014-05-02T22:30:00Z,30.6671,-87.9365,1.368,6.91,1111122 
DISL,ioos:station:DISL:MHPA:1,2014-05-02T23:00:00Z,30.6671,-87.9365,1.343,6.85,1111122 
DISL,ioos:station:DISL:MHPA:1,2014-05-02T23:30:00Z,30.6671,-87.9365,1.323,7.09,1111122 
DISL,ioos:station:DISL:MHPA:1,2014-05-03T00:00:00Z,30.6671,-87.9365,1.311,7.1,1111122 
DISL,ioos:station:DISL:MHPA:1,2014-05-03T00:30:00Z,30.6671,-87.9365,1.275,7.08,1111122 
DISL,ioos:station:DISL:MHPA:1,2014-05-03T01:00:00Z,30.6671,-87.9365,1.241,7.29,1111122 
DISL,ioos:station:DISL:MHPA:1,2014-05-03T01:30:00Z,30.6671,-87.9365,1.219,7.12,1111122 
DISL,ioos:station:DISL:MHPA:1,2014-05-03T02:00:00Z,30.6671,-87.9365,1.188,7.06,1111122 
DISL,ioos:station:DISL:MHPA:1,2014-05-03T02:30:00Z,30.6671,-87.9365,1.154,7.06,1111122 
DISL,ioos:station:DISL:MHPA:1,2014-05-03T03:00:00Z,30.6671,-87.9365,1.128,6.94,1111122 
DISL,ioos:station:DISL:MHPA:1,2014-05-03T03:30:00Z,30.6671,-87.9365,1.102,7.02,1111122 
DISL,ioos:station:DISL:MHPA:1,2014-05-03T04:00:00Z,30.6671,-87.9365,1.073,6.84,1111122 
DISL,ioos:station:DISL:MHPA:1,2014-05-03T04:30:00Z,30.6671,-87.9365,1.054,6.9,1111122 
DISL,ioos:station:DISL:MHPA:1,2014-05-03T05:00:00Z,30.6671,-87.9365,1.041,6.82,1111122 
DISL,ioos:station:DISL:MHPA:1,2014-05-03T05:30:00Z,30.6671,-87.9365,1.031,6.77,1111122 
DISL,ioos:station:DISL:MHPA:1,2014-05-03T06:00:00Z,30.6671,-87.9365,1.021,6.77,1111122 
DISL,ioos:station:DISL:MHPA:1,2014-05-03T06:30:00Z,30.6671,-87.9365,1.013,6.73,1111122 
DISL,ioos:station:DISL:MHPA:1,2014-05-03T07:00:00Z,30.6671,-87.9365,1.012,6.67,1111122 
DISL,ioos:station:DISL:MHPA:1,2014-05-03T07:30:00Z,30.6671,-87.9365,1.011,6.69,1111122 
DISL,ioos:station:DISL:MHPA:1,2014-05-03T08:00:00Z,30.6671,-87.9365,1.009,6.64,1111122 
DISL,ioos:station:DISL:MHPA:1,2014-05-03T08:30:00Z,30.6671,-87.9365,1.016,6.57,1111122 
DISL,ioos:station:DISL:MHPA:1,2014-05-03T09:00:00Z,30.6671,-87.9365,1.034,6.54,1111122 
DISL,ioos:station:DISL:MHPA:1,2014-05-03T09:30:00Z,30.6671,-87.9365,1.058,6.61,1111122 
DISL,ioos:station:DISL:MHPA:1,2014-05-03T10:00:00Z,30.6671,-87.9365,1.087,6.57,1111122 
DISL,ioos:station:DISL:MHPA:1,2014-05-03T10:30:00Z,30.6671,-87.9365,1.112,6.43,1111122 
DISL,ioos:station:DISL:MHPA:1,2014-05-03T11:00:00Z,30.6671,-87.9365,1.157,6.36,1111122 
DISL,ioos:station:DISL:MHPA:1,2014-05-03T11:30:00Z,30.6671,-87.9365,1.185,6.37,1111122 
DISL,ioos:station:DISL:MHPA:1,2014-05-03T12:00:00Z,30.6671,-87.9365,1.201,6.39,1111122 
DISL,ioos:station:DISL:MHPA:1,2014-05-03T12:30:00Z,30.6671,-87.9365,1.222,6.34,1111122 
DISL,ioos:station:DISL:MHPA:1,2014-05-03T13:00:00Z,30.6671,-87.9365,1.245,6.34,1111122 
DISL,ioos:station:DISL:MHPA:1,2014-05-03T13:30:00Z,30.6671,-87.9365,1.273,6.51,1111122 
DISL,ioos:station:DISL:MHPA:1,2014-05-03T14:00:00Z,30.6671,-87.9365,1.295,6.33,1111122 
DISL,ioos:station:DISL:MHPA:1,2014-05-03T14:30:00Z,30.6671,-87.9365,1.333,6.17,1111122 
DISL,ioos:station:DISL:MHPA:1,2014-05-03T15:00:00Z,30.6671,-87.9365,1.358,6.29,1111122 
DISL,ioos:station:DISL:MHPA:1,2014-05-03T15:30:00Z,30.6671,-87.9365,1.387,6.52,1111122 
DISL,ioos:station:DISL:MHPA:1,2014-05-03T16:00:00Z,30.6671,-87.9365,1.404,6.8,1111122 
DISL,ioos:station:DISL:MHPA:1,2014-05-03T16:30:00Z,30.6671,-87.9365,1.432,6.76,1111122 
DISL,ioos:station:DISL:MHPA:1,2014-05-03T17:00:00Z,30.6671,-87.9365,1.459,6.68,1111122 
DISL,ioos:station:DISL:MHPA:1,2014-05-03T17:30:00Z,30.6671,-87.9365,1.466,6.87,1111122 
DISL,ioos:station:DISL:MHPA:1,2014-05-03T18:00:00Z,30.6671,-87.9365,1.475,7.04,1111122 
DISL,ioos:station:DISL:MHPA:1,2014-05-03T18:30:00Z,30.6671,-87.9365,1.474,6.89,1111122 
DISL,ioos:station:DISL:MHPA:1,2014-05-03T19:00:00Z,30.6671,-87.9365,1.483,6.73,1111122 
DISL,ioos:station:DISL:MHPA:1,2014-05-03T19:30:00Z,30.6671,-87.9365,1.473,6.65,1111122 
DISL,ioos:station:DISL:MHPA:1,2014-05-03T20:00:00Z,30.6671,-87.9365,1.466,6.76,1111122 
DISL,ioos:station:DISL:MHPA:1,2014-05-03T20:30:00Z,30.6671,-87.9365,1.468,6.94,1111122 
DISL,ioos:station:DISL:MHPA:1,2014-05-03T21:00:00Z,30.6671,-87.9365,1.482,7.79,1111122 
DISL,ioos:station:DISL:MHPA:1,2014-05-03T21:30:00Z,30.6671,-87.9365,1.461,7.82,1111122 
DISL,ioos:station:DISL:MHPA:1,2014-05-03T22:00:00Z,30.6671,-87.9365,1.443,7.84,1111122 
DISL,ioos:station:DISL:MHPA:1,2014-05-03T22:30:00Z,30.6671,-87.9365,1.425,7.9,1111122 
DISL,ioos:station:DISL:MHPA:1,2014-05-03T23:00:00Z,30.6671,-87.9365,1.407,7.99,1111122 
DISL,ioos:station:DISL:MHPA:1,2014-05-03T23:30:00Z,30.6671,-87.9365,1.377,7.94,1111122 
DISL,ioos:station:DISL:MHPA:1,2014-05-04T00:00:00Z,30.6671,-87.9365,1.345,7.95,1111122 
DISL,ioos:station:DISL:MHPA:1,2014-05-04T00:30:00Z,30.6671,-87.9365,1.313,7.77,1111122 
DISL,ioos:station:DISL:MHPA:1,2014-05-04T01:00:00Z,30.6671,-87.9365,1.279,7.66,1111122 
DISL,ioos:station:DISL:MHPA:1,2014-05-04T01:30:00Z,30.6671,-87.9365,1.239,7.55,1111122 
DISL,ioos:station:DISL:MHPA:1,2014-05-04T02:00:00Z,30.6671,-87.9365,1.207,7.51,1111122 
DISL,ioos:station:DISL:MHPA:1,2014-05-04T02:30:00Z,30.6671,-87.9365,1.178,7.58,1111122 
DISL,ioos:station:DISL:MHPA:1,2014-05-04T03:00:00Z,30.6671,-87.9365,1.149,7.53,1111122 
DISL,ioos:station:DISL:MHPA:1,2014-05-04T03:30:00Z,30.6671,-87.9365,1.123,7.38,1111122 
DISL,ioos:station:DISL:MHPA:1,2014-05-04T04:00:00Z,30.6671,-87.9365,1.103,7.09,1111122 
DISL,ioos:station:DISL:MHPA:1,2014-05-04T04:30:00Z,30.6671,-87.9365,1.086,7.24,1111122 
DISL,ioos:station:DISL:MHPA:1,2014-05-04T05:00:00Z,30.6671,-87.9365,1.068,6.87,1111122 
DISL,ioos:station:DISL:MHPA:1,2014-05-04T05:30:00Z,30.6671,-87.9365,1.049,7.08,1111122 
DISL,ioos:station:DISL:MHPA:1,2014-05-04T06:00:00Z,30.6671,-87.9365,1.034,7.07,1111122 
DISL,ioos:station:DISL:MHPA:1,2014-05-04T06:30:00Z,30.6671,-87.9365,1.022,6.9,1111122 
DISL,ioos:station:DISL:MHPA:1,2014-05-04T07:00:00Z,30.6671,-87.9365,1.006,6.75,1111122 
DISL,ioos:station:DISL:MHPA:1,2014-05-04T07:30:00Z,30.6671,-87.9365,0.992,6.54,1111122 
DISL,ioos:station:DISL:MHPA:1,2014-05-04T08:00:00Z,30.6671,-87.9365,0.982,6.51,1111122 
DISL,ioos:station:DISL:MHPA:1,2014-05-04T08:30:00Z,30.6671,-87.9365,0.976,6.52,1111122 
DISL,ioos:station:DISL:MHPA:1,2014-05-04T09:00:00Z,30.6671,-87.9365,0.974,6.56,1111122 
DISL,ioos:station:DISL:MHPA:1,2014-05-04T09:30:00Z,30.6671,-87.9365,0.976,6.45,1111122 
DISL,ioos:station:DISL:MHPA:1,2014-05-04T10:00:00Z,30.6671,-87.9365,0.982,6.38,1111122 
DISL,ioos:station:DISL:MHPA:1,2014-05-04T10:30:00Z,30.6671,-87.9365,0.988,6.3,1111122 
DISL,ioos:station:DISL:MHPA:1,2014-05-04T11:00:00Z,30.6671,-87.9365,0.993,6.31,1111122 
DISL,ioos:station:DISL:MHPA:1,2014-05-04T11:30:00Z,30.6671,-87.9365,1.005,6.42,1111122 
DISL,ioos:station:DISL:MHPA:1,2014-05-04T12:00:00Z,30.6671,-87.9365,1.022,6.55,1111122 
DISL,ioos:station:DISL:MHPA:1,2014-05-04T12:30:00Z,30.6671,-87.9365,1.046,6.47,1111122 
DISL,ioos:station:DISL:MHPA:1,2014-05-04T13:00:00Z,30.6671,-87.9365,1.085,6.48,1111122 
DISL,ioos:station:DISL:MHPA:1,2014-05-04T13:30:00Z,30.6671,-87.9365,1.116,6.57,1111122 
DISL,ioos:station:DISL:MHPA:1,2014-05-04T14:00:00Z,30.6671,-87.9365,1.134,6.64,1111122 
DISL,ioos:station:DISL:MHPA:1,2014-05-04T14:30:00Z,30.6671,-87.9365,1.147,6.63,1111122 
DISL,ioos:station:DISL:MHPA:1,2014-05-04T15:00:00Z,30.6671,-87.9365,1.177,6.46,1111122 
DISL,ioos:station:DISL:MHPA:1,2014-05-04T15:30:00Z,30.6671,-87.9365,1.207,6.52,1111122 
DISL,ioos:station:DISL:MHPA:1,2014-05-04T16:00:00Z,30.6671,-87.9365,1.232,6.99,1111122 
DISL,ioos:station:DISL:MHPA:1,2014-05-04T16:30:00Z,30.6671,-87.9365,1.257,7.01,1111122 
DISL,ioos:station:DISL:MHPA:1,2014-05-04T17:00:00Z,30.6671,-87.9365,1.276,7.37,1111122 
DISL,ioos:station:DISL:MHPA:1,2014-05-04T17:30:00Z,30.6671,-87.9365,1.306,7.38,1111122 
DISL,ioos:station:DISL:MHPA:1,2014-05-04T18:00:00Z,30.6671,-87.9365,1.336,7.45,1111122 
DISL,ioos:station:DISL:MHPA:1,2014-05-04T18:30:00Z,30.6671,-87.9365,1.369,7.74,1111122 
DISL,ioos:station:DISL:MHPA:1,2014-05-04T19:00:00Z,30.6671,-87.9365,1.368,7.7,1111122 
DISL,ioos:station:DISL:MHPA:1,2014-05-04T19:30:00Z,30.6671,-87.9365,1.374,7.72,1111122 
DISL,ioos:station:DISL:MHPA:1,2014-05-04T20:00:00Z,30.6671,-87.9365,1.389,7.79,1111122 
DISL,ioos:station:DISL:MHPA:1,2014-05-04T20:30:00Z,30.6671,-87.9365,1.408,7.83,1111122 
DISL,ioos:station:DISL:MHPA:1,2014-05-04T21:00:00Z,30.6671,-87.9365,1.411,7.78,1111122 
DISL,ioos:station:DISL:MHPA:1,2014-05-04T21:30:00Z,30.6671,-87.9365,1.393,7.92,1111122 
DISL,ioos:station:DISL:MHPA:1,2014-05-04T22:00:00Z,30.6671,-87.9365,1.372,7.73,1111122 
DISL,ioos:station:DISL:MHPA:1,2014-05-04T22:30:00Z,30.6671,-87.9365,1.361,7.93,1111122 
DISL,ioos:station:DISL:MHPA:1,2014-05-04T23:00:00Z,30.6671,-87.9365,1.334,7.8,1111122 
DISL,ioos:station:DISL:MHPA:1,2014-05-04T23:30:00Z,30.6671,-87.9365,1.31,7.79,1111122 
DISL,ioos:station:DISL:MHPA:1,2014-05-05T00:00:00Z,30.6671,-87.9365,1.283,7.55,1111122 
DISL,ioos:station:DISL:MHPA:1,2014-05-05T00:30:00Z,30.6671,-87.9365,1.251,7.48,1111122 
DISL,ioos:station:DISL:MHPA:1,2014-05-05T01:00:00Z,30.6671,-87.9365,1.222,7.53,1111122 
DISL,ioos:station:DISL:MHPA:1,2014-05-05T01:30:00Z,30.6671,-87.9365,1.194,7.4,1111122 
DISL,ioos:station:DISL:MHPA:1,2014-05-05T02:00:00Z,30.6671,-87.9365,1.167,7.5,1111122 
DISL,ioos:station:DISL:MHPA:1,2014-05-05T02:30:00Z,30.6671,-87.9365,1.143,7.49,1111122 
DISL,ioos:station:DISL:MHPA:1,2014-05-05T03:00:00Z,30.6671,-87.9365,1.12,7.29,1111122 
DISL,ioos:station:DISL:MHPA:1,2014-05-05T03:30:00Z,30.6671,-87.9365,1.102,7.15,1111122 
DISL,ioos:station:DISL:MHPA:1,2014-05-05T04:00:00Z,30.6671,-87.9365,1.084,7.08,1111122 
DISL,ioos:station:DISL:MHPA:1,2014-05-05T04:30:00Z,30.6671,-87.9365,1.068,6.98,1111122 
DISL,ioos:station:DISL:MHPA:1,2014-05-05T05:00:00Z,30.6671,-87.9365,1.052,7.02,1111122 
DISL,ioos:station:DISL:MHPA:1,2014-05-05T05:30:00Z,30.6671,-87.9365,1.033,6.55,1111122 
DISL,ioos:station:DISL:MHPA:1,2014-05-05T06:00:00Z,30.6671,-87.9365,1.016,6.85,1111122 
DISL,ioos:station:DISL:MHPA:1,2014-05-05T06:30:00Z,30.6671,-87.9365,1.003,6.94,1111122 
DISL,ioos:station:DISL:MHPA:1,2014-05-05T07:00:00Z,30.6671,-87.9365,0.993,6.76,1111122 
DISL,ioos:station:DISL:MHPA:1,2014-05-05T07:30:00Z,30.6671,-87.9365,0.984,6.67,1111122 
DISL,ioos:station:DISL:MHPA:1,2014-05-05T08:00:00Z,30.6671,-87.9365,0.978,6.86,1111122 
DISL,ioos:station:DISL:MHPA:1,2014-05-05T08:30:00Z,30.6671,-87.9365,0.974,6.91,1111122 
DISL,ioos:station:DISL:MHPA:1,2014-05-05T09:00:00Z,30.6671,-87.9365,0.97,6.84,1111122 
DISL,ioos:station:DISL:MHPA:1,2014-05-05T09:30:00Z,30.6671,-87.9365,0.971,6.7,1111122 
DISL,ioos:station:DISL:MHPA:1,2014-05-05T10:00:00Z,30.6671,-87.9365,0.973,6.54,1111122 
DISL,ioos:station:DISL:MHPA:1,2014-05-05T10:30:00Z,30.6671,-87.9365,0.977,6.51,1111122 
DISL,ioos:station:DISL:MHPA:1,2014-05-05T11:00:00Z,30.6671,-87.9365,0.986,6.51,1111122 
DISL,ioos:station:DISL:MHPA:1,2014-05-05T11:30:00Z,30.6671,-87.9365,0.998,6.52,1111122 
DISL,ioos:station:DISL:MHPA:1,2014-05-05T12:00:00Z,30.6671,-87.9365,1.015,6.48,1111122 
DISL,ioos:station:DISL:MHPA:1,2014-05-05T12:30:00Z,30.6671,-87.9365,1.037,6.55,1111122 
DISL,ioos:station:DISL:MHPA:1,2014-05-05T13:00:00Z,30.6671,-87.9365,1.061,6.54,1111122 
DISL,ioos:station:DISL:MHPA:1,2014-05-05T13:30:00Z,30.6671,-87.9365,1.083,6.53,1111122 
DISL,ioos:station:DISL:MHPA:1,2014-05-05T14:00:00Z,30.6671,-87.9365,1.117,6.58,1111122 
DISL,ioos:station:DISL:MHPA:1,2014-05-05T14:30:00Z,30.6671,-87.9365,1.144,6.52,1111122 
DISL,ioos:station:DISL:MHPA:1,2014-05-05T15:00:00Z,30.6671,-87.9365,1.168,6.46,1111122 
DISL,ioos:station:DISL:MHPA:1,2014-05-05T15:30:00Z,30.6671,-87.9365,1.196,6.57,1111122 
DISL,ioos:station:DISL:MHPA:1,2014-05-05T16:00:00Z,30.6671,-87.9365,1.224,6.61,1111122 
DISL,ioos:station:DISL:MHPA:1,2014-05-05T16:30:00Z,30.6671,-87.9365,1.244,6.77,1111122 
DISL,ioos:station:DISL:MHPA:1,2014-05-05T17:00:00Z,30.6671,-87.9365,1.264,7.11,1111122 
DISL,ioos:station:DISL:MHPA:1,2014-05-05T17:30:00Z,30.6671,-87.9365,1.279,7.22,1111122 
DISL,ioos:station:DISL:MHPA:1,2014-05-05T18:00:00Z,30.6671,-87.9365,1.296,7.24,1111122 
DISL,ioos:station:DISL:MHPA:1,2014-05-05T18:30:00Z,30.6671,-87.9365,1.312,7.13,1111122 
DISL,ioos:station:DISL:MHPA:1,2014-05-05T19:00:00Z,30.6671,-87.9365,1.343,7.07,1111122 
DISL,ioos:station:DISL:MHPA:1,2014-05-05T19:30:00Z,30.6671,-87.9365,1.37,7.8,1111122 
DISL,ioos:station:DISL:MHPA:1,2014-05-05T20:00:00Z,30.6671,-87.9365,1.371,7.49,1111122 
DISL,ioos:station:DISL:MHPA:1,2014-05-05T20:30:00Z,30.6671,-87.9365,1.385,7.34,1111122 
DISL,ioos:station:DISL:MHPA:1,2014-05-05T21:00:00Z,30.6671,-87.9365,1.387,7.36,1111122 
DISL,ioos:station:DISL:MHPA:1,2014-05-05T21:30:00Z,30.6671,-87.9365,1.383,7.38,1111122 
DISL,ioos:station:DISL:MHPA:1,2014-05-05T22:00:00Z,30.6671,-87.9365,1.377,7.39,1111122 
DISL,ioos:station:DISL:MHPA:1,2014-05-05T22:30:00Z,30.6671,-87.9365,1.357,7.45,1111122 
DISL,ioos:station:DISL:MHPA:1,2014-05-05T23:00:00Z,30.6671,-87.9365,1.337,7.5,1111122 
DISL,ioos:station:DISL:MHPA:1,2014-05-05T23:30:00Z,30.6671,-87.9365,1.318,7.43,1111122 
DISL,ioos:station:DISL:MHPA:1,2014-05-06T00:00:00Z,30.6671,-87.9365,1.298,7.42,1111122 
DISL,ioos:station:DISL:MHPA:1,2014-05-06T00:30:00Z,30.6671,-87.9365,1.284,7.46,1111122 
DISL,ioos:station:DISL:MHPA:1,2014-05-06T01:00:00Z,30.6671,-87.9365,1.265,7.42,1111122 
DISL,ioos:station:DISL:MHPA:1,2014-05-06T01:30:00Z,30.6671,-87.9365,1.241,7.31,1111122 
DISL,ioos:station:DISL:MHPA:1,2014-05-06T02:00:00Z,30.6671,-87.9365,1.222,7.23,1111122 
DISL,ioos:station:DISL:MHPA:1,2014-05-06T02:30:00Z,30.6671,-87.9365,1.203,7.18,1111122 
DISL,ioos:station:DISL:MHPA:1,2014-05-06T03:00:00Z,30.6671,-87.9365,1.179,7.12,1111122 
DISL,ioos:station:DISL:MHPA:1,2014-05-06T03:30:00Z,30.6671,-87.9365,1.156,7.0,1111122 
DISL,ioos:station:DISL:MHPA:1,2014-05-06T04:00:00Z,30.6671,-87.9365,1.136,6.93,1111122 
DISL,ioos:station:DISL:MHPA:1,2014-05-06T04:30:00Z,30.6671,-87.9365,1.12,6.99,1111122 
DISL,ioos:station:DISL:MHPA:1,2014-05-06T05:00:00Z,30.6671,-87.9365,1.102,6.85,1111122 
DISL,ioos:station:DISL:MHPA:1,2014-05-06T05:30:00Z,30.6671,-87.9365,1.087,6.8,1111122 
DISL,ioos:station:DISL:MHPA:1,2014-05-06T06:00:00Z,30.6671,-87.9365,1.077,6.81,1111122 
DISL,ioos:station:DISL:MHPA:1,2014-05-06T06:30:00Z,30.6671,-87.9365,1.07,6.67,1111122 
DISL,ioos:station:DISL:MHPA:1,2014-05-06T07:00:00Z,30.6671,-87.9365,1.065,6.83,1111122 
DISL,ioos:station:DISL:MHPA:1,2014-05-06T07:30:00Z,30.6671,-87.9365,1.065,7.12,1111122 
DISL,ioos:station:DISL:MHPA:1,2014-05-06T08:00:00Z,30.6671,-87.9365,1.063,6.82,1111122 
DISL,ioos:station:DISL:MHPA:1,2014-05-06T08:30:00Z,30.6671,-87.9365,1.064,6.44,1111122 
DISL,ioos:station:DISL:MHPA:1,2014-05-06T09:00:00Z,30.6671,-87.9365,1.069,6.77,1111122 
DISL,ioos:station:DISL:MHPA:1,2014-05-06T09:30:00Z,30.6671,-87.9365,1.076,6.76,1111122 
DISL,ioos:station:DISL:MHPA:1,2014-05-06T10:00:00Z,30.6671,-87.9365,1.081,6.67,1111122 
DISL,ioos:station:DISL:MHPA:1,2014-05-06T10:30:00Z,30.6671,-87.9365,1.09,6.78,1111122 
DISL,ioos:station:DISL:MHPA:1,2014-05-06T11:00:00Z,30.6671,-87.9365,1.106,6.66,1111122 
DISL,ioos:station:DISL:MHPA:1,2014-05-06T11:30:00Z,30.6671,-87.9365,1.117,6.73,1111122 
DISL,ioos:station:DISL:MHPA:1,2014-05-06T12:00:00Z,30.6671,-87.9365,1.128,6.77,1111122 
DISL,ioos:station:DISL:MHPA:1,2014-05-06T12:30:00Z,30.6671,-87.9365,1.149,6.29,1111122 
DISL,ioos:station:DISL:MHPA:1,2014-05-06T13:00:00Z,30.6671,-87.9365,1.173,6.33,1111122 
DISL,ioos:station:DISL:MHPA:1,2014-05-06T13:30:00Z,30.6671,-87.9365,1.19,6.59,1111122 
DISL,ioos:station:DISL:MHPA:1,2014-05-06T14:00:00Z,30.6671,-87.9365,1.205,6.59,1111122 
DISL,ioos:station:DISL:MHPA:1,2014-05-06T14:30:00Z,30.6671,-87.9365,1.22,6.61,1111122 
DISL,ioos:station:DISL:MHPA:1,2014-05-06T15:00:00Z,30.6671,-87.9365,1.24,6.59,1111122 
DISL,ioos:station:DISL:MHPA:1,2014-05-06T15:30:00Z,30.6671,-87.9365,1.248,6.71,1111122 